Terminal Aerodrome Forecast
Issued by NWS Grand Forks, ND

Home | Current Version | Previous Version | Graphics & Text | Print | Product List | Glossary On
Versions: 1 2 3 4 5 6 7 8 9 10 11 12 13 14 15 16 17 18 19 20 21
659
FTUS43 KFGF 231552 AAB
TAFGFK
TAF AMD
KGFK 231552Z 2316/2412 07013KT P6SM -SN OVC060
      TEMPO 2316/2318 BKN035
     FM231800 09015KT P6SM OVC030
     FM232300 09014G20KT P6SM VCSH OVC015
     FM240600 07015G22KT P6SM OVC015=

USA.gov is the U.S. government's official web portal to all federal, state and local government web resources and services.